Location: Heidgraben
(53.7081°N, 9.6576°E)
Time: 21:53:05
(UTC+00:00)

Cosmos 2333 Rocket - Pass Details

Date: 01 November 2020
Orbit: 841 x 861 km, 70.8° (Epoch: 28 November)

Event Time Altitude Azimuth Distance (km) Brightness Sun altitude
Exits shadow 01:39:19 14° 6° (N) 2,209 4.7 -40.5°
Drops below altitude 10° 01:41:58 10° 34° (NE) 2,479 5.2 -40.2°
Sets 01:45:45 0° 59° (ENE) 3,410 6.2 -39.8°
